Location: Bear Valley
(38.4650°N, 120.0390°W)
Time: 05:16:05
(UTC-08:00)

OTV 5 (USA 277) - Pass Details

Date: 30 October 2019
Orbit: 310 x 324 km, 54.5° (Epoch: 17 October)

Event Time Altitude Azimuth Distance (km) Brightness Sun altitude
Rises 19:37:15 0° 264° (W) 2,047 ? -19.0°
Reaches altitude 10° 19:39:46 10° 290° (WNW) 1,223 ? -19.5°
Maximum altitude 19:41:26 15° 328° (NNW) 995 ? -19.8°
Enters shadow 19:42:01 14° 344° (NNW) 1,028 ? -19.9°
